Left ArrowRight Arrow

31.31129, -92.44514

Hourly Observations for October 28, 2022

Temp ( °F °C ) Dew Point ( °F °C ) Humidity (%) Winds ( mph kmh ) Pressure ( in mb ) Visibility ( mi km ) Precip ( " mm )
12:53 am 00:53 Clear 54 12.2 49 9.4 83 83 SSE 5 7 30.04 1017 10 16 0.00 0.00
1:53 am 01:53 Clear 52 11.1 46 7.8 80 80 Calm 30.04 1017 10 16 0.00 0.00
2:53 am 02:53 Clear 54 12.2 47 8.3 77 77 Calm 30.04 1017 10 16 0.00 0.00
3:53 am 03:53 Clear 55 12.8 50 10 83 83 Calm 30.05 1018 10 16 0.00 0.00
4:53 am 04:53 Clear 57 13.9 51 10.6 80 80 Calm 30.06 1018 10 16 0.00 0.00
5:53 am 05:53 Clear 57 13.9 51 10.6 80 80 ENE 3 6 30.06 1018 10 16 0.00 0.00
6:53 am 06:53 Mostly Clear 58 14.4 50 10 75 75 NE 9 15 30.03 1017 10 16 0.00 0.00
7:53 am 07:53 Sunny 58 14.4 50 10 75 75 S 3 6 30.07 1018 10 16 0.00 0.00
8:53 am 08:53 Sunny 59 15 51 10.6 75 75 E 3 6 30.08 1019 10 16 0.00 0.00
9:53 am 09:53 Sunny 61 16.1 52 11.1 72 72 Calm 30.11 1020 9 14 0.00 0.00
10:53 am 10:53 Sunny 68 20 53 11.7 59 59 E 5 7 30.13 1020 10 16 0.00 0.00
11:53 am 11:53 Mostly Sunny 71 21.7 53 11.7 53 53 ESE 10 17 30.11 1020 10 16 0.00 0.00
12:53 pm 12:53 Sunny 72 22.2 54 12.2 53 53 ESE 15 24 30.09 1019 10 16 0.00 0.00
1:53 pm 13:53 Sunny 72 22.2 55 12.8 55 55 ESE 15 24 30.02 1017 10 16 0.00 0.00
2:53 pm 14:53 Sunny 72 22.2 55 12.8 55 55 ESE 13 20 30.02 1017 10 16 0.00 0.00
3:53 pm 15:53 Sunny 70 21.1 53 11.7 55 55 ESE 10 17 30.00 1016 10 16 0.00 0.00
4:53 pm 16:53 Sunny 69 20.6 55 12.8 61 61 E 7 11 30.01 1016 7 11 0.00 0.00
5:53 pm 17:53 Sunny 68 20 55 12.8 63 63 VRB 3 6 30.04 1017 10 16 0.00 0.00
6:53 pm 18:53 Clear 67 19.4 56 13.3 68 68 E 5 7 30.04 1017 10 16 0.00 0.00
7:53 pm 19:53 Partly Cloudy 66 18.9 56 13.3 70 70 ENE 7 11 30.06 1018 10 16 0.00 0.00
8:53 pm 20:53 Mostly Clear 66 18.9 56 13.3 70 70 E 8 13 30.05 1018 10 16 0.00 0.00
9:53 pm 21:53 Mostly Cloudy with Light Rain 65 18.3 58 14.4 78 78 E 5 7 30.08 1019 9 14 0.03 0.76
10:53 pm 22:53 Mostly Cloudy 64 17.8 59 15 84 84 E 7 11 30.05 1018 10 16 0.03 0.76
11:53 pm 23:53 Mostly Cloudy 65 18.3 59 15 81 81 E 12 19 30.02 1017 10 16 0.01 0.13

Powered by Vaisala Xweather